Location: Bucquoy
(50.1391°N, 2.7097°E)
Time: 07:25:56
(UTC+00:00)

STARLINK-2557 - Pass Details

Date: 06 May 2021
Orbit: 349 x 350 km, 53.1° (Epoch: 22 June)

Event Time Altitude Azimuth Distance (km) Brightness Sun altitude
Exits shadow 02:49:01 15° 267° (W) 1,145 4.8 -12.1°
Maximum altitude 02:50:55 26° 217° (SW) 788 3.8 -11.9°
Drops below altitude 10° 02:53:33 10° 159° (SSE) 1,373 5.4 -11.6°
Sets 02:55:45 0° 145° (SE) 2,211 6.6 -11.3°
